Regional Weather Roundup
Issued by NWS

Home | Current Version | Previous Version | Text Only | Print | Product List | Glossary On
Versions: 1 2 3 4 5 6 7 8 9 10 11 12 13 14 15 16 17 18 19 20 21 22 23 24 25 26 27 28 29 30 31 32 33 34 35 36 37 38 39 40 41 42 43 44 45 46 47 48 49 50
000
ASUS45 KBOU 230907
RWRCO

WEATHER ROUNDUP FOR COLORADO
NATIONAL WEATHER SERVICE DENVER/BOULDER CO
300 AM MDT SAT MAY 23 2015

NOTE: "FAIR" INDICATES FEW OR NO CLOUDS BELOW 12000 FEET WITH NO
SIGNIFICANT WEATHER AND/OR OBSTRUCTIONS TO VISIBILITY.

COZ001>005-013-030-031-231000-
...NORTHWEST COLORADO...

CITY           SKY/WX    TMP DP  RH WIND       PRES   REMARKS
CRAIG          PTCLDY    43  38  82 E12       30.02F
HAYDEN         MOCLDY    41  36  81 E14       30.04S
MEEKER         MOCLDY    41  38  89 MISG      30.02F
MOUNT WERNER   NOT AVBL
STEAMBOAT SPGS MOCLDY    38  36  94 CALM      30.06F
WALDEN         MOCLDY    36  34  93 NE5       30.01F
$$

COZ006>008-011-231000-
...WEST CENTRAL VALLEYS...

CITY           SKY/WX    TMP DP  RH WIND       PRES   REMARKS
GRAND JUNCTION LGT RAIN  47  44  90 E8        29.96S
MONTROSE       CLOUDY    49  36  61 S7        30.05R
EAGLE          CLOUDY    45  43  93 CALM      30.09S
RIFLE          MOCLDY    45  42  89 E7        30.01S
DELTA          CLOUDY    50  45  84 MISG      30.00S THUNDER
NUCLA          CLOUDY    46  34  61 SE12      30.04S
$$

COZ017>023-064>068-231000-
...SOUTHWEST COLORADO...

CITY           SKY/WX    TMP DP  RH WIND       PRES   REMARKS
DURANGO        CLOUDY    44  39  82 S5        30.04S
CORTEZ         PTCLDY    40  36  86 CALM      30.03S
PAGOSA SPRINGS CLOUDY    46  35  66 NW6       30.07S
TELLURIDE      LGT SNOW  35  33  95 CALM      30.14F
WOLF CREEK PAS NOT AVBL
$$

COZ009-010-012-014-032>034-037-058>063-231000-
...CENTRAL COLORADO...

CITY           SKY/WX    TMP DP  RH WIND       PRES   REMARKS
ASPEN          CLOUDY    41  36  82 S5        30.07F
BUENA VISTA    LGT RAIN  41  37  83 NW7       30.09S
COPPER MTN     CLOUDY    34  27  75 S6        30.21S WCI  29
BERTHOUD PASS  HAZE      25  18  74 W13G18    30.23F VSB<1/4 WCI  13
COTTONWOOD PAS CLOUDY    41  32  70 CALM      30.15F
GUNNISON       CLOUDY    36  30  80 E7        30.14F
KREMMLING      CLOUDY    39  36  87 CALM      30.11F
LEADVILLE      CLOUDY    30  30 100 CALM      30.14S
MONARCH PASS   FOG       30  28  93 MISG      30.30F VSB 1/4
SALIDA         CLOUDY    46  40  77 CALM      30.14F
SUNLIGHT       CLOUDY    34  32  93 SE5       30.19F FOG     WCI  30
WILKERSON PASS FOG       32  32 100 S7        30.22F VSB 1/2 WCI  26
$$

COZ069>075-231000-
...SAN LUIS VALLEY/SANGRE DE CRISTO MOUNTAINS...

CITY           SKY/WX    TMP DP  RH WIND       PRES   REMARKS
ALAMOSA        MOCLDY    45  36  70 N5        30.04F
LA VETA PASS   LGT RAIN N/A N/A N/A MISG      30.15F
SAGUACHE       MOCLDY    39  36  87 NW7       30.08S
$$

COZ035-036-038>040-231000-
...NORTHERN COLORADO FRONT RANGE...

CITY           SKY/WX    TMP DP  RH WIND       PRES   REMARKS
DENVER INTL AP MOCLDY    47  44  90 S3        30.05S
DMNS CITY PARK   N/A     48  47  97 NW3       30.04F
AURORA         CLOUDY    44  44 100 NE2       30.05F
FRONT RANGE AP NOT AVBL
ERIE MUNI ARPT CLOUDY    47  47  99 CALM      30.05S FOG
BOULDER MUN AP CLOUDY    48  48 100 CALM      30.05S
CENTENNIAL     MOCLDY    48  46  93 W3        30.05F
BROOMFIELD     CLOUDY    48  48 100 SE3       30.06S FOG
FORT COLLINS   CLOUDY    48  46  93 SE7       30.07R VSB 3/4
LONGMONT       CLOUDY    49  48  95 CALM      30.07R
$$

COZ041-046-047-076>085-087-088-231000-
...PIKES PEAK/PALMER DIVIDE AND SOUTHERN FOOTHILLS...

CITY           SKY/WX    TMP DP  RH WIND       PRES   REMARKS
COLO. SPRINGS  MOCLDY    47  44  90 N9        30.02F
A. F. ACADEMY  CLOUDY    45  45  99 N12       30.03F
ELLICOTT       NOT AVBL
FALCON         MOCLDY    45  43  93 N8        30.04F
FORT CARSON    MOCLDY    47  46  95 N12       30.00F
LIMON          CLOUDY    48  48 100 N10       30.01F
MONUMENT HILL  NOT AVBL
TRINIDAD       PTCLDY    52  45  77 S12       29.99R
$$

COZ042>045-048>051-090-091-231000-
...NORTHEAST COLORADO...

CITY           SKY/WX    TMP DP  RH WIND       PRES   REMARKS
GREELEY ARPT   CLOUDY    48  46  93 S5        30.06R
AKRON          CLOUDY    49  49 100 SE12      30.04S
BURLINGTON     FOG       53  52  96 VRB3      30.02S VSB 1/4
WRAY           LGT RAIN N/A N/A N/A E17G23    30.02F
STERLING       CLOUDY    50  50 100 E3        30.03S
HOLYOKE        NOT AVBL
FORT MORGAN    FOG       49  47  95 NE3       30.04F VSB 1/2
$$

COZ086-089-092>099-231000-
...SOUTHEAST COLORADO...

CITY           SKY/WX    TMP DP  RH WIND       PRES   REMARKS
PUEBLO         PTCLDY    51  46  83 MISG      29.98R
LA JUNTA       MOCLDY    52  49  89 W5        29.95S
LAMAR          MOCLDY    56  54  93 SE12      29.96R
SPRINGFIELD      N/A     55  54  96 S9        30.02R
$$



USA.gov is the U.S. government's official web portal to all federal, state and local government web resources and services.